This is the latest recevied weather packets stored in our database for station/object LZ1NAG-10. If no packets are shown the sender has not sent any weather packets the latest 10 day(s).
| Time | Temp. | Humidity | Pressure | Rain* | Wind** | Luminosity | Snow |
|---|---|---|---|---|---|---|---|
| 1777676497 | -2.78° C | 55% | 1027.3 hPa | - | - | - | - |
| 1777675597 | -2.78° C | 55% | 1027.6 hPa | - | - | - | - |
| 1777674697 | -2.78° C | 55% | 1027.5 hPa | - | - | - | - |
| 1777673797 | -2.22° C | 55% | 1027.4 hPa | - | - | - | - |
| 1777672896 | -2.22° C | 55% | 1027.8 hPa | - | - | - | - |
| 1777671996 | -2.22° C | 55% | 1027.8 hPa | - | - | - | - |
| 1777671096 | -1.67° C | 55% | 1027.7 hPa | - | - | - | - |
| 1777670196 | -1.67° C | 55% | 1027.7 hPa | - | - | - | - |
| 1777669296 | -1.67° C | 55% | 1027.4 hPa | - | - | - | - |
| 1777668395 | -1.67° C | 55% | 1027.6 hPa | - | - | - | - |
| 1777667495 | -1.11° C | 55% | 1027.4 hPa | - | - | - | - |
| 1777666595 | -0.56° C | 55% | 1027.3 hPa | - | - | - | - |
| 1777665695 | -0.56° C | 55% | 1027.3 hPa | - | - | - | - |
| 1777664794 | -1.11° C | 55% | 1027.4 hPa | - | - | - | - |
| 1777663895 | -1.11° C | 55% | 1027.3 hPa | - | - | - | - |
| 1777662994 | -0.56° C | 55% | 1027.3 hPa | - | - | - | - |
| 1777662094 | 0° C | 55% | 1027.2 hPa | - | - | - | - |
| 1777661194 | 0° C | 55% | 1027.1 hPa | - | - | - | - |
| 1777660294 | 0.56° C | 56% | 1027 hPa | - | - | - | - |
| 1777659394 | 1.11° C | 56% | 1027.1 hPa | - | - | - | - |
| 1777658493 | 1.67° C | 55% | 1026.8 hPa | - | - | - | - |
| 1777657593 | 2.78° C | 55% | 1026.6 hPa | - | - | - | - |
| 1777656693 | 3.33° C | 55% | 1026.6 hPa | - | - | - | - |
| 1777655793 | 3.89° C | 55% | 1026.6 hPa | - | - | - | - |
| 1777654893 | 3.89° C | 55% | 1026.6 hPa | - | - | - | - |
* Rain since midnight (hover to see other rain measurements)
** Current wind speed in m/s (hover to see current wind gust speed)